This is the latest recevied weather packets stored in our database for station/object KD7AWQ. If no packets are shown the sender has not sent any weather packets the latest 10 day(s).
| Time | Temp. | Humidity | Pressure | Rain* | Wind** | Luminosity | Snow |
|---|---|---|---|---|---|---|---|
| 1787728037 | 32.22° C | 19% | 1187.1 hPa | 0 mm | - | 0 W/m² | - |
| 1787727736 | 32.22° C | 19% | 1187.3 hPa | 0 mm | - | 0 W/m² | - |
| 1787727435 | 32.22° C | 19% | 1187.2 hPa | 0 mm | - | 0 W/m² | - |
| 1787727130 | 31.67° C | 19% | 1187.2 hPa | 0 mm | - | 0 W/m² | - |
| 1787726824 | 31.67° C | 20% | 1187.1 hPa | 0 mm | - | 0 W/m² | - |
| 1787726521 | 31.67° C | 20% | 1187.4 hPa | 0 mm | - | 0 W/m² | - |
| 1787726217 | 31.11° C | 20% | 1187.2 hPa | 0 mm | - | 0 W/m² | - |
| 1787725912 | 31.11° C | 21% | 1187.5 hPa | 0 mm | - | 0 W/m² | - |
| 1787725608 | 31.11° C | 21% | 1187.1 hPa | 0 mm | - | 0 W/m² | - |
| 1787725304 | 31.11° C | 22% | 1187.2 hPa | 0 mm | - | 0 W/m² | - |
| 1787725004 | 31.11° C | 21% | 1187.3 hPa | 0 mm | - | 0 W/m² | - |
| 1787724703 | 32.22° C | 20% | 1187.3 hPa | 0 mm | - | 0 W/m² | - |
| 1787724398 | 31.67° C | 20% | 1187.1 hPa | 0 mm | - | 0 W/m² | - |
| 1787724093 | 31.11° C | 21% | 1187.1 hPa | 0 mm | - | 0 W/m² | - |
| 1787723787 | 31.11° C | 21% | 1187.1 hPa | 0 mm | - | 0 W/m² | - |
| 1787723482 | 31.67° C | 21% | 1187.1 hPa | 0 mm | - | 0 W/m² | - |
| 1787723179 | 31.11° C | 21% | 1187.2 hPa | 0 mm | - | 0 W/m² | - |
| 1787722873 | 30.56° C | 22% | 1187.1 hPa | 0 mm | - | 0 W/m² | - |
| 1787722567 | 30.56° C | 22% | 1186.9 hPa | 0 mm | - | 0 W/m² | - |
| 1787722263 | 31.11° C | 22% | 1186.9 hPa | 0 mm | - | 0 W/m² | - |
| 1787721958 | 31.67° C | 21% | 1186.9 hPa | 0 mm | - | 0 W/m² | - |
| 1787721655 | 31.67° C | 21% | 1187.1 hPa | 0 mm | - | 0 W/m² | - |
| 1787721354 | 31.67° C | 20% | 1187.3 hPa | 0 mm | - | 0 W/m² | - |
| 1787721049 | 32.22° C | 20% | 1186.9 hPa | 0 mm | - | 0 W/m² | - |
| 1787720748 | 32.78° C | 19% | 1186.6 hPa | 0 mm | - | 0 W/m² | - |
* Rain latest hour (hover to see other rain measurements)
** Current wind speed in m/s (hover to see current wind gust speed)